Location: Colonia Mina de C?rbuni
(46.1667°N, 22.7167°E)
Time: 22:00:42
(UTC+00:00)

Tiros 1 - Pass Details

Date: 25 April 2024
Orbit: 624 x 657 km, 48.4° (Epoch: 20 May)

Event Time Altitude Azimuth Distance (km) Brightness Sun altitude
Rises 23:08:59 0° 274° (W) 2,935 - -29.5°
Reaches altitude 10° 23:11:20 10° 277° (W) 2,021 - -29.4°
Maximum altitude 23:15:57 65° 360° (N) 694 - -29.2°
Exits shadow 23:18:41 24° 77° (ENE) 1,319 8.9 -29.1°
Drops below altitude 10° 23:20:32 10° 83° (E) 2,003 9.9 -29.0°
Sets 23:22:52 0° 86° (E) 2,906 10.7 -28.9°
